User: anonymous   Login
Location: Unspecified
(0.0000°N, 0.0000°E)
Time: 21:17:41
(UTC+00:00)
Language:

USA 290 - Orbit

View from above orbital plane
View from above orbital plane
View from above satellite
View from above satellite

Ground track
Ground track

The orbit data is extracted from the following two-line orbital elements,

1 43941U 19004A   21325.73137164 0.00003799  00000-0  60183-4 0    03
2 43941  73.5757 290.3439 0005795 123.0398 237.0407 15.53271418    09
Epoch (UTC): 21 November 2021 17:33:10
Eccentricity: 0.0005795
inclination: 73.5757°
perigee height: 403 km
apogee height: 411 km
right ascension of ascending node: 290.3439°
argument of perigee: 123.0398°
revolutions per day: 15.53271418
mean anomaly at epoch: 237.0407°
orbit number at epoch: 0

The dashed part of the orbit path shows where the satellite is in the earth's shadow,  

DLR